Time,TemperatureF,DewpointF,PressureIn,WindDirection,WindDirectionDegrees,WindSpeedMPH,WindSpeedGustMPH,Humidity,HourlyPrecipIn,Conditions,Clouds,dailyrainin,SolarRadiationWatts/m^2,SoftwareType,DateUTC
2013-03-08 00:00:00,36.1,28.6,30.16,NW,318,0.0,3.0,74,0.00,,,0.00,0.00,VWS V14.01,2013-03-08 05:00:00,
2013-03-08 00:04:00,36.0,28.9,30.16,NNW,329,0.0,5.0,75,0.00,,,0.00,0.00,VWS V14.01,2013-03-08 05:04:00,
2013-03-08 00:09:00,35.8,28.7,30.16,NW,318,0.0,4.0,75,0.00,,,0.00,0.00,VWS V14.01,2013-03-08 05:09:00,
2013-03-08 00:14:00,35.7,28.6,30.16,NW,326,2.0,4.0,75,0.00,,,0.00,0.00,VWS V14.01,2013-03-08 05:14:00,
2013-03-08 00:19:00,35.5,28.4,30.15,NNW,332,0.0,4.0,75,0.00,,,0.00,0.00,VWS V14.01,2013-03-08 05:19:00,
2013-03-08 00:24:00,35.5,28.4,30.16,NNW,340,4.0,5.0,75,0.00,,,0.00,0.00,VWS V14.01,2013-03-08 05:24:00,
2013-03-08 00:29:00,35.4,28.3,30.15,NNW,329,2.0,3.0,75,0.00,,,0.00,0.00,VWS V14.01,2013-03-08 05:29:00,
2013-03-08 00:34:00,35.3,28.2,30.16,North,350,0.0,4.0,75,0.00,,,0.00,0.00,VWS V14.01,2013-03-08 05:34:00,
2013-03-08 00:39:00,35.3,28.2,30.16,NNW,348,0.0,3.0,75,0.00,,,0.00,0.00,VWS V14.01,2013-03-08 05:39:00,
2013-03-08 00:45:00,35.2,28.1,30.16,NNW,347,2.0,2.0,75,0.00,,,0.00,0.00,VWS V14.01,2013-03-08 05:45:00,
2013-03-08 00:50:00,35.2,28.1,30.16,NNW,348,0.0,1.0,75,0.00,,,0.00,0.00,VWS V14.01,2013-03-08 05:50:00,
2013-03-08 00:55:00,35.2,28.1,30.16,NNW,331,2.0,3.0,75,0.00,,,0.00,0.00,VWS V14.01,2013-03-08 05:55:00,
2013-03-08 01:00:00,35.3,28.2,30.16,NNW,343,0.0,2.0,75,0.00,,,0.00,0.00,VWS V14.01,2013-03-08 06:00:00,
2013-03-08 01:06:00,35.4,28.3,30.16,NNW,343,0.0,1.0,75,0.00,,,0.00,0.00,VWS V14.01,2013-03-08 06:06:00,
2013-03-08 01:11:00,35.4,28.3,30.16,NNW,342,0.0,1.0,75,0.00,,,0.00,0.00,VWS V14.01,2013-03-08 06:11:00,
2013-03-08 01:16:00,35.5,28.4,30.16,NNW,342,0.0,0.0,75,0.00,,,0.00,0.00,VWS V14.01,2013-03-08 06:16:00,
2013-03-08 01:21:00,35.4,28.3,30.16,NNW,343,0.0,0.0,75,0.00,,,0.00,0.00,VWS V14.01,2013-03-08 06:21:00,
2013-03-08 01:26:00,35.3,28.2,30.16,NNW,343,0.0,1.0,75,0.00,,,0.00,0.00,VWS V14.01,2013-03-08 06:26:00,
2013-03-08 01:31:00,35.2,28.1,30.16,NNW,343,0.0,1.0,75,0.00,,,0.00,0.00,VWS V14.01,2013-03-08 06:31:00,
2013-03-08 01:36:00,35.2,28.4,30.15,NW,323,2.0,3.0,76,0.00,,,0.00,0.00,VWS V14.01,2013-03-08 06:36:00,
2013-03-08 01:42:00,35.2,28.4,30.15,NNW,327,4.0,6.0,76,0.00,,,0.00,0.00,VWS V14.01,2013-03-08 06:42:00,
2013-03-08 01:47:00,35.5,28.7,30.15,NW,317,6.0,8.0,76,0.00,,,0.00,0.00,VWS V14.01,2013-03-08 06:47:00,
2013-03-08 01:52:00,35.8,29.0,30.15,NW,313,0.0,5.0,76,0.00,,,0.00,0.00,VWS V14.01,2013-03-08 06:52:00,
2013-03-08 01:57:00,36.1,29.0,30.15,NNW,327,1.0,7.0,75,0.00,,,0.00,0.00,VWS V14.01,2013-03-08 06:57:00,
2013-03-08 02:02:00,36.2,29.0,30.15,NW,304,3.0,5.0,75,0.00,,,0.00,0.00,VWS V14.01,2013-03-08 07:02:00,
2013-03-08 02:07:00,36.2,29.0,30.15,NNW,333,4.0,10.0,75,0.00,,,0.00,0.00,VWS V14.01,2013-03-08 07:07:00,
2013-03-08 02:12:00,36.3,28.8,30.15,NW,322,7.0,15.0,74,0.00,,,0.00,0.00,VWS V14.01,2013-03-08 07:12:00,
2013-03-08 02:17:00,36.5,29.0,30.15,NNW,343,8.0,12.0,74,0.00,,,0.00,0.00,VWS V14.01,2013-03-08 07:17:00,
2013-03-08 02:23:00,36.6,28.8,30.15,NW,324,5.0,12.0,73,0.00,,,0.00,0.00,VWS V14.01,2013-03-08 07:23:00,
2013-03-08 02:28:00,36.7,28.5,30.15,NNW,338,8.0,12.0,72,0.00,,,0.00,0.00,VWS V14.01,2013-03-08 07:28:00,
2013-03-08 02:33:00,36.8,28.6,30.15,NW,324,3.0,10.0,72,0.00,,,0.00,0.00,VWS V14.01,2013-03-08 07:33:00,
2013-03-08 02:38:00,36.8,28.3,30.15,WNW,285,7.0,14.0,71,0.00,,,0.00,0.00,VWS V14.01,2013-03-08 07:38:00,
2013-03-08 02:43:00,36.9,28.4,30.15,NNW,346,8.0,13.0,71,0.00,,,0.00,0.00,VWS V14.01,2013-03-08 07:43:00,
2013-03-08 02:48:00,36.8,28.3,30.15,NNW,330,4.0,10.0,71,0.00,,,0.00,0.00,VWS V14.01,2013-03-08 07:48:00,
2013-03-08 02:53:00,36.8,28.3,30.15,WNW,298,6.0,6.0,71,0.00,,,0.00,0.00,VWS V14.01,2013-03-08 07:53:00,
2013-03-08 02:58:00,36.7,28.2,30.14,North,355,4.0,7.0,71,0.00,,,0.00,0.00,VWS V14.01,2013-03-08 07:58:00,
2013-03-08 03:03:00,36.6,28.1,30.14,NW,306,3.0,9.0,71,0.00,,,0.00,0.00,VWS V14.01,2013-03-08 08:03:00,
2013-03-08 03:08:00,36.6,28.1,30.14,NW,326,5.0,12.0,71,0.00,,,0.00,0.00,VWS V14.01,2013-03-08 08:08:00,
2013-03-08 03:14:00,36.5,28.0,30.14,NNW,334,9.0,10.0,71,0.00,,,0.00,0.00,VWS V14.01,2013-03-08 08:14:00,
2013-03-08 03:19:00,36.5,28.0,30.14,WNW,296,10.0,12.0,71,0.00,,,0.00,0.00,VWS V14.01,2013-03-08 08:19:00,
2013-03-08 03:24:00,36.4,27.9,30.14,North,355,7.0,14.0,71,0.00,,,0.00,0.00,VWS V14.01,2013-03-08 08:24:00,
2013-03-08 03:29:00,36.4,27.9,30.14,NW,321,3.0,8.0,71,0.00,,,0.00,0.00,VWS V14.01,2013-03-08 08:29:00,
2013-03-08 03:34:00,36.3,28.1,30.15,North,349,6.0,11.0,72,0.00,,,0.00,0.00,VWS V14.01,2013-03-08 08:34:00,
2013-03-08 03:39:00,36.3,27.8,30.14,NW,321,7.0,11.0,71,0.00,,,0.00,0.00,VWS V14.01,2013-03-08 08:39:00,
2013-03-08 03:44:00,36.3,28.1,30.15,NW,325,4.0,8.0,72,0.00,,,0.00,0.00,VWS V14.01,2013-03-08 08:44:00,
2013-03-08 03:49:00,36.2,27.7,30.15,NW,323,5.0,10.0,71,0.00,,,0.00,0.00,VWS V14.01,2013-03-08 08:49:00,
2013-03-08 03:54:00,36.2,28.1,30.15,NW,322,6.0,12.0,72,0.00,,,0.00,0.00,VWS V14.01,2013-03-08 08:54:00,
2013-03-08 04:00:00,36.2,27.7,30.15,NW,321,1.0,8.0,71,0.00,,,0.00,0.00,VWS V14.01,2013-03-08 09:00:00,
2013-03-08 04:05:00,36.2,28.1,30.15,NNW,342,5.0,9.0,72,0.00,,,0.00,0.00,VWS V14.01,2013-03-08 09:05:00,
2013-03-08 04:10:00,36.2,28.1,30.15,NW,321,11.0,14.0,72,0.00,,,0.00,0.00,VWS V14.01,2013-03-08 09:10:00,
2013-03-08 04:15:00,36.2,28.1,30.15,NNW,327,3.0,12.0,72,0.00,,,0.00,0.00,VWS V14.01,2013-03-08 09:15:00,
2013-03-08 04:20:00,36.3,28.1,30.15,NNW,344,4.0,12.0,72,0.00,,,0.00,0.00,VWS V14.01,2013-03-08 09:20:00,
2013-03-08 04:25:00,36.3,28.1,30.15,NW,323,10.0,14.0,72,0.00,,,0.00,0.00,VWS V14.01,2013-03-08 09:25:00,
2013-03-08 04:30:00,36.3,28.1,30.15,NW,304,5.0,12.0,72,0.00,,,0.00,0.00,VWS V14.01,2013-03-08 09:30:00,
2013-03-08 04:35:00,36.3,28.1,30.15,NW,317,6.0,8.0,72,0.00,,,0.00,0.00,VWS V14.01,2013-03-08 09:35:00,
2013-03-08 04:40:00,36.3,28.1,30.15,NW,317,3.0,4.0,72,0.00,,,0.00,0.00,VWS V14.01,2013-03-08 09:40:00,
2013-03-08 04:46:00,36.3,28.1,30.16,NNW,341,10.0,14.0,72,0.00,,,0.00,0.00,VWS V14.01,2013-03-08 09:46:00,
2013-03-08 04:51:00,36.3,28.1,30.15,NW,325,7.0,12.0,72,0.00,,,0.00,0.00,VWS V14.01,2013-03-08 09:51:00,
2013-03-08 04:56:00,36.3,28.1,30.15,NW,312,5.0,7.0,72,0.00,,,0.00,0.00,VWS V14.01,2013-03-08 09:56:00,
2013-03-08 05:01:00,36.2,28.1,30.15,NW,325,4.0,6.0,72,0.00,,,0.00,0.00,VWS V14.01,2013-03-08 10:01:00,
2013-03-08 05:06:00,36.1,28.0,30.15,NW,325,3.0,6.0,72,0.00,,,0.00,0.00,VWS V14.01,2013-03-08 10:06:00,
2013-03-08 05:11:00,36.1,28.0,30.15,North,355,6.0,10.0,72,0.00,,,0.00,0.00,VWS V14.01,2013-03-08 10:11:00,
2013-03-08 05:16:00,36.1,28.0,30.15,NNW,336,6.0,7.0,72,0.00,,,0.00,0.00,VWS V14.01,2013-03-08 10:16:00,
2013-03-08 05:21:00,36.1,28.0,30.15,NW,319,6.0,10.0,72,0.00,,,0.00,0.00,VWS V14.01,2013-03-08 10:21:00,
2013-03-08 05:26:00,36.1,28.0,30.15,NNW,344,8.0,11.0,72,0.00,,,0.00,0.00,VWS V14.01,2013-03-08 10:26:00,
2013-03-08 05:31:00,36.1,28.0,30.15,North,360,9.0,11.0,72,0.00,,,0.00,0.00,VWS V14.01,2013-03-08 10:31:00,
2013-03-08 05:36:00,36.1,28.0,30.15,North,355,5.0,7.0,72,0.00,,,0.00,0.00,VWS V14.01,2013-03-08 10:36:00,
2013-03-08 05:41:00,36.1,28.0,30.15,NNW,336,5.0,6.0,72,0.00,,,0.00,0.00,VWS V14.01,2013-03-08 10:41:00,
2013-03-08 05:47:00,36.0,27.9,30.15,NW,311,4.0,6.0,72,0.00,,,0.00,0.00,VWS V14.01,2013-03-08 10:47:00,
2013-03-08 05:52:00,36.0,27.9,30.15,North,355,5.0,7.0,72,0.00,,,0.00,0.00,VWS V14.01,2013-03-08 10:52:00,
2013-03-08 05:57:00,36.1,28.0,30.15,NW,319,4.0,8.0,72,0.00,,,0.00,0.00,VWS V14.01,2013-03-08 10:57:00,
2013-03-08 06:02:00,36.1,27.6,30.16,North,349,4.0,10.0,71,0.00,,,0.00,0.00,VWS V14.01,2013-03-08 11:02:00,
2013-03-08 06:07:00,36.1,27.6,30.16,NNW,343,9.0,15.0,71,0.00,,,0.00,0.00,VWS V14.01,2013-03-08 11:07:00,
2013-03-08 06:12:00,36.3,27.5,30.16,NW,325,6.0,14.0,70,0.00,,,0.00,0.00,VWS V14.01,2013-03-08 11:12:00,
2013-03-08 06:17:00,36.3,27.5,30.16,North,355,6.0,10.0,70,0.00,,,0.00,0.00,VWS V14.01,2013-03-08 11:17:00,
2013-03-08 06:22:00,36.4,27.6,30.17,North,360,8.0,15.0,70,0.00,,,0.00,0.00,VWS V14.01,2013-03-08 11:22:00,
2013-03-08 06:27:00,36.3,27.8,30.17,North,360,8.0,10.0,71,0.00,,,0.00,0.00,VWS V14.01,2013-03-08 11:27:00,
2013-03-08 06:32:00,36.2,28.1,30.17,NNE,13,14.0,14.0,72,0.00,,,0.00,0.00,VWS V14.01,2013-03-08 11:32:00,
2013-03-08 06:38:00,36.1,28.3,30.17,NNW,342,11.0,11.0,73,0.00,,,0.00,5.00,VWS V14.01,2013-03-08 11:38:00,
2013-03-08 06:43:00,35.9,28.4,30.17,North,355,7.0,8.0,74,0.00,,,0.00,11.00,VWS V14.01,2013-03-08 11:43:00,
2013-03-08 06:48:00,35.7,28.6,30.17,NNW,348,5.0,12.0,75,0.00,,,0.00,21.00,VWS V14.01,2013-03-08 11:48:00,
2013-03-08 06:53:00,35.5,28.4,30.17,NNW,341,10.0,12.0,75,0.00,,,0.00,11.00,VWS V14.01,2013-03-08 11:53:00,
2013-03-08 06:58:00,35.6,28.5,30.18,North,9,6.0,12.0,75,0.00,,,0.00,23.00,VWS V14.01,2013-03-08 11:58:00,
2013-03-08 07:03:00,35.6,28.5,30.18,NNW,346,6.0,10.0,75,0.00,,,0.00,25.00,VWS V14.01,2013-03-08 12:03:00,
2013-03-08 07:08:00,35.5,28.4,30.18,NNW,342,6.0,16.0,75,0.00,,,0.00,32.00,VWS V14.01,2013-03-08 12:08:00,
2013-03-08 07:13:00,35.4,28.6,30.18,NNW,344,7.0,13.0,76,0.00,,,0.00,32.00,VWS V14.01,2013-03-08 12:13:00,
2013-03-08 07:18:00,35.4,28.6,30.18,NNW,346,7.0,10.0,76,0.00,,,0.00,58.00,VWS V14.01,2013-03-08 12:18:00,
2013-03-08 07:23:00,35.6,28.5,30.18,NNE,22,7.0,16.0,75,0.00,,,0.00,65.00,VWS V14.01,2013-03-08 12:23:00,
2013-03-08 07:29:00,35.9,28.4,30.18,NW,324,11.0,16.0,74,0.00,,,0.00,88.00,VWS V14.01,2013-03-08 12:29:00,
2013-03-08 07:34:00,36.1,28.6,30.18,NNE,31,13.0,14.0,74,0.00,,,0.00,97.00,VWS V14.01,2013-03-08 12:34:00,
2013-03-08 07:39:00,36.4,28.6,30.18,North,5,12.0,22.0,73,0.00,,,0.00,134.00,VWS V14.01,2013-03-08 12:39:00,
2013-03-08 07:44:00,36.6,28.8,30.18,NNW,346,9.0,18.0,73,0.00,,,0.00,127.00,VWS V14.01,2013-03-08 12:44:00,
2013-03-08 07:49:00,36.8,29.0,30.19,NNW,330,7.0,17.0,73,0.00,,,0.00,125.00,VWS V14.01,2013-03-08 12:49:00,
2013-03-08 07:54:00,36.8,29.0,30.19,North,355,16.0,19.0,73,0.00,,,0.00,90.00,VWS V14.01,2013-03-08 12:54:00,
2013-03-08 07:59:00,36.7,28.9,30.19,NNW,348,14.0,14.0,73,0.00,,,0.00,93.00,VWS V14.01,2013-03-08 12:59:00,
2013-03-08 08:04:00,36.6,28.4,30.19,North,360,14.0,19.0,72,0.00,,,0.00,88.00,VWS V14.01,2013-03-08 13:04:00,
2013-03-08 08:10:00,36.6,28.4,30.19,North,350,16.0,17.0,72,0.00,,,0.00,139.00,VWS V14.01,2013-03-08 13:10:00,
2013-03-08 08:15:00,36.7,28.2,30.19,North,360,16.0,22.0,71,0.00,,,0.00,156.00,VWS V14.01,2013-03-08 13:15:00,
2013-03-08 08:20:00,36.8,28.0,30.19,NNW,344,10.0,21.0,70,0.00,,,0.00,93.00,VWS V14.01,2013-03-08 13:20:00,
2013-03-08 08:25:00,36.8,28.0,30.19,NNE,22,11.0,20.0,70,0.00,,,0.00,104.00,VWS V14.01,2013-03-08 13:25:00,
2013-03-08 08:30:00,36.8,27.6,30.19,NNW,342,11.0,26.0,69,0.00,,,0.00,102.00,VWS V14.01,2013-03-08 13:30:00,
2013-03-08 08:35:00,36.7,27.5,30.19,North,355,15.0,20.0,69,0.00,,,0.00,77.00,VWS V14.01,2013-03-08 13:35:00,
2013-03-08 08:40:00,36.6,27.4,30.20,NNW,344,12.0,14.0,69,0.00,,,0.00,79.00,VWS V14.01,2013-03-08 13:40:00,
2013-03-08 08:45:00,36.6,27.8,30.20,North,360,12.0,14.0,70,0.00,,,0.00,76.00,VWS V14.01,2013-03-08 13:45:00,
2013-03-08 08:50:00,36.5,27.7,30.20,North,350,5.0,9.0,70,0.00,,,0.00,90.00,VWS V14.01,2013-03-08 13:50:00,
2013-03-08 08:56:00,36.4,27.9,30.20,NW,324,10.0,10.0,71,0.00,,,0.00,121.00,VWS V14.01,2013-03-08 13:56:00,
2013-03-08 09:01:00,36.4,28.2,30.20,North,350,8.0,14.0,72,0.00,,,0.00,156.00,VWS V14.01,2013-03-08 14:01:00,
2013-03-08 09:06:00,36.5,28.4,30.20,North,355,10.0,16.0,72,0.00,,,0.00,171.00,VWS V14.01,2013-03-08 14:06:00,
2013-03-08 09:11:00,36.5,29.7,30.21,North,11,12.0,12.0,76,0.00,,,0.00,174.00,VWS V14.01,2013-03-08 14:11:00,
2013-03-08 09:16:00,36.6,28.1,30.21,North,355,15.0,16.0,71,0.00,,,0.00,267.00,VWS V14.01,2013-03-08 14:16:00,
2013-03-08 09:21:00,36.8,28.3,30.21,NNW,346,6.0,14.0,71,0.00,,,0.00,195.00,VWS V14.01,2013-03-08 14:21:00,
2013-03-08 09:26:00,36.8,27.6,30.21,North,11,18.0,19.0,69,0.00,,,0.00,135.00,VWS V14.01,2013-03-08 14:26:00,
2013-03-08 09:31:00,36.6,27.4,30.21,North,355,9.0,21.0,69,0.00,,,0.00,190.00,VWS V14.01,2013-03-08 14:31:00,
2013-03-08 09:37:00,36.7,26.8,30.21,NNW,339,11.0,21.0,67,0.00,,,0.00,232.00,VWS V14.01,2013-03-08 14:37:00,
2013-03-08 09:42:00,36.8,26.1,30.21,NNE,12,14.0,22.0,65,0.00,,,0.00,267.00,VWS V14.01,2013-03-08 14:42:00,
2013-03-08 09:47:00,37.0,26.0,30.21,North,350,11.0,17.0,64,0.00,,,0.00,141.00,VWS V14.01,2013-03-08 14:47:00,
2013-03-08 09:52:00,37.2,26.2,30.21,NNE,17,5.0,18.0,64,0.00,,,0.00,496.00,VWS V14.01,2013-03-08 14:52:00,
2013-03-08 09:57:00,37.7,25.9,30.21,North,9,12.0,23.0,62,0.00,,,0.00,476.00,VWS V14.01,2013-03-08 14:57:00,
2013-03-08 10:02:00,38.2,25.5,30.21,NNW,327,12.0,30.0,60,0.00,,,0.00,531.00,VWS V14.01,2013-03-08 15:02:00,
2013-03-08 10:07:00,38.3,25.6,30.21,NNW,346,12.0,25.0,60,0.00,,,0.00,332.00,VWS V14.01,2013-03-08 15:07:00,
2013-03-08 10:12:00,38.4,25.3,30.21,North,351,19.0,21.0,59,0.00,,,0.00,272.00,VWS V14.01,2013-03-08 15:12:00,
2013-03-08 10:17:00,38.6,25.5,30.21,NW,317,16.0,22.0,59,0.00,,,0.00,503.00,VWS V14.01,2013-03-08 15:17:00,
2013-03-08 10:22:00,39.3,26.2,30.21,North,355,19.0,20.0,59,0.00,,,0.00,504.00,VWS V14.01,2013-03-08 15:22:00,
2013-03-08 10:28:00,39.7,25.7,30.21,NNW,329,17.0,24.0,57,0.00,,,0.00,510.00,VWS V14.01,2013-03-08 15:28:00,
2013-03-08 10:33:00,39.9,25.9,30.21,NNW,345,17.0,22.0,57,0.00,,,0.00,494.00,VWS V14.01,2013-03-08 15:33:00,
2013-03-08 10:38:00,40.0,25.6,30.21,North,355,15.0,22.0,56,0.00,,,0.00,541.00,VWS V14.01,2013-03-08 15:38:00,
2013-03-08 10:43:00,40.1,25.2,30.21,NNW,342,13.0,26.0,55,0.00,,,0.00,582.00,VWS V14.01,2013-03-08 15:43:00,
2013-03-08 10:48:00,39.8,25.0,30.21,North,355,19.0,31.0,55,0.00,,,0.00,617.00,VWS V14.01,2013-03-08 15:48:00,
2013-03-08 10:53:00,40.0,26.0,30.21,NNW,334,16.0,17.0,57,0.00,,,0.00,246.00,VWS V14.01,2013-03-08 15:53:00,
2013-03-08 10:58:00,40.4,26.0,30.20,North,355,17.0,24.0,56,0.00,,,0.00,680.00,VWS V14.01,2013-03-08 15:58:00,
2013-03-08 11:03:00,40.4,26.0,30.21,NNW,331,16.0,26.0,56,0.00,,,0.00,617.00,VWS V14.01,2013-03-08 16:03:00,
2013-03-08 11:08:00,40.6,25.7,30.21,NNW,338,15.0,23.0,55,0.00,,,0.00,640.00,VWS V14.01,2013-03-08 16:08:00,
2013-03-08 11:13:00,40.8,25.9,30.21,NNW,340,15.0,23.0,55,0.00,,,0.00,568.00,VWS V14.01,2013-03-08 16:13:00,
2013-03-08 11:19:00,41.1,26.6,30.20,NNW,348,16.0,20.0,56,0.00,,,0.00,543.00,VWS V14.01,2013-03-08 16:19:00,
2013-03-08 11:24:00,41.2,25.8,30.21,NW,322,14.0,23.0,54,0.00,,,0.00,148.00,VWS V14.01,2013-03-08 16:24:00,
2013-03-08 11:29:00,41.0,26.5,30.21,NNW,344,13.0,18.0,56,0.00,,,0.00,538.00,VWS V14.01,2013-03-08 16:29:00,
2013-03-08 11:34:00,41.4,27.3,30.21,NE,36,15.0,18.0,57,0.00,,,0.00,520.00,VWS V14.01,2013-03-08 16:34:00,
2013-03-08 11:39:00,42.0,27.5,30.20,NW,309,7.0,16.0,56,0.00,,,0.00,548.00,VWS V14.01,2013-03-08 16:39:00,
2013-03-08 11:44:00,42.6,28.0,30.20,NW,315,14.0,21.0,56,0.00,,,0.00,584.00,VWS V14.01,2013-03-08 16:44:00,
2013-03-08 11:49:00,42.3,26.9,30.20,NNW,327,13.0,24.0,54,0.00,,,0.00,534.00,VWS V14.01,2013-03-08 16:49:00,
2013-03-08 11:54:00,41.9,27.4,30.20,North,9,15.0,25.0,56,0.00,,,0.00,510.00,VWS V14.01,2013-03-08 16:54:00,
2013-03-08 12:00:00,41.7,26.7,30.20,North,355,12.0,24.0,55,0.00,,,0.00,497.00,VWS V14.01,2013-03-08 17:00:00,
2013-03-08 12:05:00,41.5,27.0,30.20,NW,326,14.0,26.0,56,0.00,,,0.00,501.00,VWS V14.01,2013-03-08 17:05:00,
2013-03-08 12:10:00,41.7,27.2,30.20,NW,311,18.0,24.0,56,0.00,,,0.00,504.00,VWS V14.01,2013-03-08 17:10:00,
2013-03-08 12:15:00,42.1,28.0,30.19,NNE,15,18.0,21.0,57,0.00,,,0.00,508.00,VWS V14.01,2013-03-08 17:15:00,
2013-03-08 12:20:00,42.2,27.6,30.19,NW,309,24.0,26.0,56,0.00,,,0.00,547.00,VWS V14.01,2013-03-08 17:20:00,
2013-03-08 12:25:00,42.3,27.7,30.19,North,360,20.0,25.0,56,0.00,,,0.00,617.00,VWS V14.01,2013-03-08 17:25:00,
2013-03-08 12:30:00,42.5,27.9,30.19,NNE,26,18.0,28.0,56,0.00,,,0.00,668.00,VWS V14.01,2013-03-08 17:30:00,
2013-03-08 12:35:00,42.7,27.7,30.19,North,355,10.0,22.0,55,0.00,,,0.00,714.00,VWS V14.01,2013-03-08 17:35:00,
2013-03-08 12:40:00,42.7,28.1,30.18,North,360,12.0,20.0,56,0.00,,,0.00,715.00,VWS V14.01,2013-03-08 17:40:00,
2013-03-08 12:45:00,43.0,28.0,30.18,North,355,11.0,14.0,55,0.00,,,0.00,705.00,VWS V14.01,2013-03-08 17:45:00,
2013-03-08 12:50:00,43.4,28.3,30.18,NNW,334,16.0,16.0,55,0.00,,,0.00,701.00,VWS V14.01,2013-03-08 17:50:00,
2013-03-08 12:56:00,43.7,28.2,30.17,NE,40,5.0,12.0,54,0.00,,,0.00,705.00,VWS V14.01,2013-03-08 17:56:00,
2013-03-08 13:01:00,44.1,29.0,30.17,North,11,12.0,12.0,55,0.00,,,0.00,698.00,VWS V14.01,2013-03-08 18:01:00,
2013-03-08 13:06:00,44.2,29.5,30.17,NNW,342,9.0,13.0,56,0.00,,,0.00,696.00,VWS V14.01,2013-03-08 18:06:00,
2013-03-08 13:11:00,44.9,29.3,30.17,NW,306,8.0,12.0,54,0.00,,,0.00,705.00,VWS V14.01,2013-03-08 18:11:00,
2013-03-08 13:16:00,45.0,28.9,30.17,NW,310,16.0,16.0,53,0.00,,,0.00,694.00,VWS V14.01,2013-03-08 18:16:00,
2013-03-08 13:21:00,44.9,28.8,30.17,NW,313,14.0,14.0,53,0.00,,,0.00,714.00,VWS V14.01,2013-03-08 18:21:00,
2013-03-08 13:26:00,45.2,29.1,30.17,WNW,299,8.0,16.0,53,0.00,,,0.00,789.00,VWS V14.01,2013-03-08 18:26:00,
2013-03-08 13:31:00,45.1,29.0,30.17,NNW,338,11.0,21.0,53,0.00,,,0.00,788.00,VWS V14.01,2013-03-08 18:31:00,
2013-03-08 13:36:00,45.0,28.9,30.17,NW,325,13.0,14.0,53,0.00,,,0.00,733.00,VWS V14.01,2013-03-08 18:36:00,
2013-03-08 13:41:00,44.9,28.8,30.17,NNW,328,8.0,13.0,53,0.00,,,0.00,761.00,VWS V14.01,2013-03-08 18:41:00,
2013-03-08 13:47:00,45.1,29.9,30.16,NNW,339,13.0,18.0,55,0.00,,,0.00,812.00,VWS V14.01,2013-03-08 18:47:00,
2013-03-08 13:52:00,45.6,29.5,30.16,NNW,333,9.0,17.0,53,0.00,,,0.00,868.00,VWS V14.01,2013-03-08 18:52:00,
2013-03-08 13:57:00,45.6,29.0,30.16,NW,307,10.0,15.0,52,0.00,,,0.00,244.00,VWS V14.01,2013-03-08 18:57:00,
2013-03-08 14:02:00,44.9,28.8,30.16,NNW,337,15.0,22.0,53,0.00,,,0.00,176.00,VWS V14.01,2013-03-08 19:02:00,
2013-03-08 14:07:00,44.3,28.7,30.16,WNW,284,13.0,20.0,54,0.00,,,0.00,272.00,VWS V14.01,2013-03-08 19:07:00,
2013-03-08 14:12:00,44.0,28.9,30.16,WNW,300,5.0,11.0,55,0.00,,,0.00,130.00,VWS V14.01,2013-03-08 19:12:00,
2013-03-08 14:18:00,44.3,29.6,30.16,NNE,19,12.0,15.0,56,0.00,,,0.00,659.00,VWS V14.01,2013-03-08 19:18:00,
2013-03-08 14:23:00,45.0,30.3,30.16,NW,325,19.0,19.0,56,0.00,,,0.00,619.00,VWS V14.01,2013-03-08 19:23:00,
2013-03-08 14:28:00,45.1,30.4,30.16,NNW,336,6.0,16.0,56,0.00,,,0.00,596.00,VWS V14.01,2013-03-08 19:28:00,
2013-03-08 14:33:00,45.5,30.3,30.16,NW,317,15.0,26.0,55,0.00,,,0.00,605.00,VWS V14.01,2013-03-08 19:33:00,
2013-03-08 14:38:00,45.6,29.9,30.16,NW,326,7.0,16.0,54,0.00,,,0.00,582.00,VWS V14.01,2013-03-08 19:38:00,
2013-03-08 14:43:00,45.9,30.2,30.16,NW,317,10.0,19.0,54,0.00,,,0.00,559.00,VWS V14.01,2013-03-08 19:43:00,
2013-03-08 14:48:00,45.8,30.6,30.16,North,355,8.0,21.0,55,0.00,,,0.00,559.00,VWS V14.01,2013-03-08 19:48:00,
2013-03-08 14:54:00,46.1,30.9,30.16,WNW,300,13.0,19.0,55,0.00,,,0.00,545.00,VWS V14.01,2013-03-08 19:54:00,
2013-03-08 14:59:00,46.2,30.5,30.17,NNW,348,7.0,15.0,54,0.00,,,0.00,550.00,VWS V14.01,2013-03-08 19:59:00,
2013-03-08 15:04:00,46.4,30.7,30.17,NNW,344,17.0,20.0,54,0.00,,,0.00,527.00,VWS V14.01,2013-03-08 20:04:00,
2013-03-08 15:09:00,46.2,30.5,30.17,NNW,342,11.0,22.0,54,0.00,,,0.00,526.00,VWS V14.01,2013-03-08 20:09:00,
2013-03-08 15:14:00,46.3,30.6,30.17,NNW,329,11.0,21.0,54,0.00,,,0.00,497.00,VWS V14.01,2013-03-08 20:14:00,
2013-03-08 15:19:00,46.4,30.7,30.17,NNW,329,12.0,17.0,54,0.00,,,0.00,489.00,VWS V14.01,2013-03-08 20:19:00,
2013-03-08 15:24:00,46.4,30.7,30.17,North,10,8.0,15.0,54,0.00,,,0.00,497.00,VWS V14.01,2013-03-08 20:24:00,
2013-03-08 15:30:00,46.7,31.4,30.18,NNW,332,11.0,15.0,55,0.00,,,0.00,464.00,VWS V14.01,2013-03-08 20:30:00,
2013-03-08 15:35:00,46.9,31.1,30.17,North,349,11.0,22.0,54,0.00,,,0.00,445.00,VWS V14.01,2013-03-08 20:35:00,
2013-03-08 15:40:00,46.8,30.6,30.17,North,355,10.0,21.0,53,0.00,,,0.00,434.00,VWS V14.01,2013-03-08 20:40:00,
2013-03-08 15:45:00,46.8,31.0,30.17,North,5,14.0,16.0,54,0.00,,,0.00,418.00,VWS V14.01,2013-03-08 20:45:00,
2013-03-08 15:50:00,46.7,30.5,30.18,North,5,13.0,25.0,53,0.00,,,0.00,411.00,VWS V14.01,2013-03-08 20:50:00,
2013-03-08 15:55:00,46.5,30.3,30.18,NNW,344,13.0,24.0,53,0.00,,,0.00,431.00,VWS V14.01,2013-03-08 20:55:00,
2013-03-08 16:00:00,46.3,30.1,30.18,NNE,30,18.0,18.0,53,0.00,,,0.00,125.00,VWS V14.01,2013-03-08 21:00:00,
2013-03-08 16:06:00,46.1,30.4,30.18,NNW,346,14.0,16.0,54,0.00,,,0.00,399.00,VWS V14.01,2013-03-08 21:06:00,
2013-03-08 16:11:00,46.2,30.5,30.18,North,349,10.0,14.0,54,0.00,,,0.00,413.00,VWS V14.01,2013-03-08 21:11:00,
2013-03-08 16:16:00,46.4,30.7,30.19,North,355,10.0,19.0,54,0.00,,,0.00,95.00,VWS V14.01,2013-03-08 21:16:00,
2013-03-08 16:21:00,46.3,31.0,30.19,NNW,331,6.0,10.0,55,0.00,,,0.00,139.00,VWS V14.01,2013-03-08 21:21:00,
2013-03-08 16:26:00,45.9,30.2,30.19,North,349,15.0,18.0,54,0.00,,,0.00,134.00,VWS V14.01,2013-03-08 21:26:00,
2013-03-08 16:31:00,45.4,29.7,30.19,North,355,20.0,22.0,54,0.00,,,0.00,169.00,VWS V14.01,2013-03-08 21:31:00,
2013-03-08 16:36:00,45.1,29.9,30.19,NNW,340,16.0,19.0,55,0.00,,,0.00,79.00,VWS V14.01,2013-03-08 21:36:00,
2013-03-08 16:42:00,45.0,30.3,30.20,NNW,327,10.0,24.0,56,0.00,,,0.00,104.00,VWS V14.01,2013-03-08 21:42:00,
2013-03-08 16:47:00,45.0,30.3,30.20,NNW,330,14.0,18.0,56,0.00,,,0.00,95.00,VWS V14.01,2013-03-08 21:47:00,
2013-03-08 16:52:00,45.0,29.8,30.21,NNW,330,13.0,14.0,55,0.00,,,0.00,69.00,VWS V14.01,2013-03-08 21:52:00,
2013-03-08 16:57:00,45.0,29.8,30.20,NNW,348,9.0,17.0,55,0.00,,,0.00,83.00,VWS V14.01,2013-03-08 21:57:00,
2013-03-08 17:02:00,45.0,29.8,30.21,North,349,8.0,17.0,55,0.00,,,0.00,74.00,VWS V14.01,2013-03-08 22:02:00,
2013-03-08 17:07:00,45.0,29.8,30.21,NNW,338,8.0,17.0,55,0.00,,,0.00,67.00,VWS V14.01,2013-03-08 22:07:00,
2013-03-08 17:12:00,45.1,30.4,30.21,NNW,340,12.0,14.0,56,0.00,,,0.00,58.00,VWS V14.01,2013-03-08 22:12:00,
2013-03-08 17:17:00,45.1,30.4,30.21,North,355,8.0,13.0,56,0.00,,,0.00,60.00,VWS V14.01,2013-03-08 22:17:00,
2013-03-08 17:22:00,45.1,30.4,30.22,NW,318,5.0,12.0,56,0.00,,,0.00,46.00,VWS V14.01,2013-03-08 22:22:00,
2013-03-08 17:28:00,45.2,30.5,30.22,NNW,343,8.0,13.0,56,0.00,,,0.00,44.00,VWS V14.01,2013-03-08 22:28:00,
2013-03-08 17:33:00,45.2,30.0,30.22,NW,326,9.0,17.0,55,0.00,,,0.00,35.00,VWS V14.01,2013-03-08 22:33:00,
2013-03-08 17:38:00,45.2,30.0,30.22,NNW,330,11.0,17.0,55,0.00,,,0.00,28.00,VWS V14.01,2013-03-08 22:38:00,
2013-03-08 17:43:00,45.2,30.0,30.22,North,355,10.0,15.0,55,0.00,,,0.00,21.00,VWS V14.01,2013-03-08 22:43:00,
2013-03-08 17:48:00,45.2,30.0,30.22,NW,311,8.0,13.0,55,0.00,,,0.00,16.00,VWS V14.01,2013-03-08 22:48:00,
2013-03-08 17:53:00,45.2,30.0,30.22,NNW,342,19.0,19.0,55,0.00,,,0.00,12.00,VWS V14.01,2013-03-08 22:53:00,
2013-03-08 17:58:00,45.2,30.0,30.23,NW,314,8.0,19.0,55,0.00,,,0.00,9.00,VWS V14.01,2013-03-08 22:58:00,
2013-03-08 18:03:00,45.2,30.0,30.22,NW,315,8.0,13.0,55,0.00,,,0.00,7.00,VWS V14.01,2013-03-08 23:03:00,
2013-03-08 18:08:00,45.1,29.9,30.22,NNW,341,10.0,17.0,55,0.00,,,0.00,5.00,VWS V14.01,2013-03-08 23:08:00,
2013-03-08 18:13:00,45.0,29.8,30.22,NNW,338,11.0,14.0,55,0.00,,,0.00,0.00,VWS V14.01,2013-03-08 23:13:00,
2013-03-08 18:19:00,45.0,29.8,30.22,NNW,343,9.0,16.0,55,0.00,,,0.00,0.00,VWS V14.01,2013-03-08 23:19:00,
2013-03-08 18:24:00,45.0,29.8,30.23,NNW,333,4.0,12.0,55,0.00,,,0.00,0.00,VWS V14.01,2013-03-08 23:24:00,
2013-03-08 18:29:00,44.9,29.7,30.23,North,360,6.0,12.0,55,0.00,,,0.00,0.00,VWS V14.01,2013-03-08 23:29:00,
2013-03-08 18:34:00,44.8,29.6,30.23,North,355,5.0,9.0,55,0.00,,,0.00,0.00,VWS V14.01,2013-03-08 23:34:00,
2013-03-08 18:39:00,44.7,29.5,30.24,NW,322,6.0,8.0,55,0.00,,,0.00,0.00,VWS V14.01,2013-03-08 23:39:00,
2013-03-08 18:44:00,44.6,29.5,30.24,North,360,6.0,10.0,55,0.00,,,0.00,0.00,VWS V14.01,2013-03-08 23:44:00,
2013-03-08 18:49:00,44.6,29.5,30.24,NNW,338,6.0,10.0,55,0.00,,,0.00,0.00,VWS V14.01,2013-03-08 23:49:00,
2013-03-08 18:55:00,44.5,29.8,30.24,North,351,2.0,9.0,56,0.00,,,0.00,0.00,VWS V14.01,2013-03-08 23:55:00,
2013-03-08 19:00:00,44.4,29.7,30.25,NNE,15,4.0,9.0,56,0.00,,,0.00,0.00,VWS V14.01,2013-03-09 00:00:00,
2013-03-08 19:05:00,44.3,29.6,30.24,NW,317,2.0,8.0,56,0.00,,,0.00,0.00,VWS V14.01,2013-03-09 00:05:00,
2013-03-08 19:10:00,44.3,29.6,30.25,NW,312,1.0,8.0,56,0.00,,,0.00,0.00,VWS V14.01,2013-03-09 00:10:00,
2013-03-08 19:15:00,44.3,29.6,30.25,NNW,333,3.0,9.0,56,0.00,,,0.00,0.00,VWS V14.01,2013-03-09 00:15:00,
2013-03-08 19:20:00,44.3,29.6,30.26,NNW,327,8.0,9.0,56,0.00,,,0.00,0.00,VWS V14.01,2013-03-09 00:20:00,
2013-03-08 19:25:00,44.4,29.7,30.26,NNW,341,3.0,9.0,56,0.00,,,0.00,0.00,VWS V14.01,2013-03-09 00:25:00,
2013-03-08 19:30:00,44.4,29.7,30.26,NNW,333,1.0,7.0,56,0.00,,,0.00,0.00,VWS V14.01,2013-03-09 00:30:00,
2013-03-08 19:35:00,44.4,29.3,30.26,North,349,5.0,8.0,55,0.00,,,0.00,0.00,VWS V14.01,2013-03-09 00:35:00,
2013-03-08 19:40:00,44.4,29.3,30.26,NW,323,3.0,10.0,55,0.00,,,0.00,0.00,VWS V14.01,2013-03-09 00:40:00,
2013-03-08 19:45:00,44.2,30.0,30.27,NW,310,5.0,15.0,57,0.00,,,0.00,0.00,VWS V14.01,2013-03-09 00:45:00,
2013-03-08 19:50:00,43.8,29.6,30.27,North,349,10.0,14.0,57,0.00,,,0.00,0.00,VWS V14.01,2013-03-09 00:50:00,
2013-03-08 19:55:00,43.5,29.7,30.27,NW,319,6.0,14.0,58,0.00,,,0.00,0.00,VWS V14.01,2013-03-09 00:55:00,
2013-03-08 20:00:00,43.2,29.9,30.27,NW,325,4.0,11.0,59,0.00,,,0.00,0.00,VWS V14.01,2013-03-09 01:00:00,
2013-03-08 20:05:00,42.9,30.0,30.27,NNW,331,6.0,14.0,60,0.00,,,0.00,0.00,VWS V14.01,2013-03-09 01:05:00,
2013-03-08 20:10:00,42.5,29.6,30.27,NW,321,4.0,13.0,60,0.00,,,0.00,0.00,VWS V14.01,2013-03-09 01:10:00,
2013-03-08 20:15:00,42.3,29.8,30.27,North,355,7.0,13.0,61,0.00,,,0.00,0.00,VWS V14.01,2013-03-09 01:15:00,
2013-03-08 20:20:00,42.0,29.5,30.27,NW,319,6.0,12.0,61,0.00,,,0.00,0.00,VWS V14.01,2013-03-09 01:20:00,
2013-03-08 20:25:00,41.8,29.8,30.27,NW,323,9.0,15.0,62,0.00,,,0.00,0.00,VWS V14.01,2013-03-09 01:25:00,
2013-03-08 20:30:00,41.6,29.6,30.27,NNW,338,5.0,10.0,62,0.00,,,0.00,0.00,VWS V14.01,2013-03-09 01:30:00,
2013-03-08 20:35:00,41.4,29.8,30.27,NW,321,2.0,13.0,63,0.00,,,0.00,0.00,VWS V14.01,2013-03-09 01:35:00,
2013-03-08 20:40:00,41.3,29.7,30.28,NW,315,4.0,13.0,63,0.00,,,0.00,0.00,VWS V14.01,2013-03-09 01:40:00,
2013-03-08 20:45:00,41.1,29.5,30.28,NNW,336,4.0,9.0,63,0.00,,,0.00,0.00,VWS V14.01,2013-03-09 01:45:00,
2013-03-08 20:50:00,41.0,29.8,30.28,North,360,7.0,10.0,64,0.00,,,0.00,0.00,VWS V14.01,2013-03-09 01:50:00,
2013-03-08 20:55:00,40.9,29.7,30.28,NW,321,10.0,11.0,64,0.00,,,0.00,0.00,VWS V14.01,2013-03-09 01:55:00,
2013-03-08 21:00:00,40.8,29.6,30.28,NW,317,5.0,12.0,64,0.00,,,0.00,0.00,VWS V14.01,2013-03-09 02:00:00,
2013-03-08 21:05:00,40.7,29.5,30.28,NNW,327,4.0,10.0,64,0.00,,,0.00,0.00,VWS V14.01,2013-03-09 02:05:00,
2013-03-08 21:10:00,40.5,29.7,30.29,NNW,330,5.0,10.0,65,0.00,,,0.00,0.00,VWS V14.01,2013-03-09 02:10:00,
2013-03-08 21:15:00,40.4,29.6,30.28,NNW,334,4.0,13.0,65,0.00,,,0.00,0.00,VWS V14.01,2013-03-09 02:15:00,
2013-03-08 21:20:00,40.3,29.5,30.29,NNW,329,7.0,13.0,65,0.00,,,0.00,0.00,VWS V14.01,2013-03-09 02:20:00,
2013-03-08 21:25:00,40.2,29.4,30.28,NW,313,6.0,9.0,65,0.00,,,0.00,0.00,VWS V14.01,2013-03-09 02:25:00,
2013-03-08 21:30:00,40.1,29.7,30.29,NW,321,7.0,11.0,66,0.00,,,0.00,0.00,VWS V14.01,2013-03-09 02:30:00,
2013-03-08 21:35:00,40.0,29.6,30.28,NW,311,8.0,10.0,66,0.00,,,0.00,0.00,VWS V14.01,2013-03-09 02:35:00,
2013-03-08 21:40:00,40.0,29.6,30.28,NW,323,9.0,9.0,66,0.00,,,0.00,0.00,VWS V14.01,2013-03-09 02:40:00,
2013-03-08 21:45:00,39.8,29.4,30.28,NW,325,3.0,5.0,66,0.00,,,0.00,0.00,VWS V14.01,2013-03-09 02:45:00,
2013-03-08 21:50:00,39.7,29.3,30.29,NW,325,5.0,6.0,66,0.00,,,0.00,0.00,VWS V14.01,2013-03-09 02:50:00,
2013-03-08 21:56:00,39.6,29.2,30.29,NNW,331,4.0,5.0,66,0.00,,,0.00,0.00,VWS V14.01,2013-03-09 02:56:00,
2013-03-08 22:01:00,39.4,29.4,30.29,NW,319,5.0,5.0,67,0.00,,,0.00,0.00,VWS V14.01,2013-03-09 03:01:00,
2013-03-08 22:06:00,39.3,29.3,30.29,NNW,329,7.0,10.0,67,0.00,,,0.00,0.00,VWS V14.01,2013-03-09 03:06:00,
2013-03-08 22:11:00,39.2,29.2,30.29,NW,323,3.0,6.0,67,0.00,,,0.00,0.00,VWS V14.01,2013-03-09 03:11:00,
2013-03-08 22:16:00,39.1,29.1,30.29,NNW,329,1.0,1.0,67,0.00,,,0.00,0.00,VWS V14.01,2013-03-09 03:16:00,
2013-03-08 22:21:00,39.0,29.0,30.29,NNW,330,3.0,7.0,67,0.00,,,0.00,0.00,VWS V14.01,2013-03-09 03:21:00,
2013-03-08 22:27:00,38.9,28.9,30.29,NW,326,6.0,8.0,67,0.00,,,0.00,0.00,VWS V14.01,2013-03-09 03:27:00,
2013-03-08 22:32:00,38.9,28.9,30.28,NNW,329,10.0,10.0,67,0.00,,,0.00,0.00,VWS V14.01,2013-03-09 03:32:00,
2013-03-08 22:37:00,38.9,28.9,30.28,NNW,338,6.0,9.0,67,0.00,,,0.00,0.00,VWS V14.01,2013-03-09 03:37:00,
2013-03-08 22:42:00,38.8,28.8,30.29,NW,323,3.0,8.0,67,0.00,,,0.00,0.00,VWS V14.01,2013-03-09 03:42:00,
2013-03-08 22:47:00,38.7,28.7,30.28,NW,324,3.0,8.0,67,0.00,,,0.00,0.00,VWS V14.01,2013-03-09 03:47:00,
2013-03-08 22:52:00,38.5,28.9,30.28,NW,308,8.0,9.0,68,0.00,,,0.00,0.00,VWS V14.01,2013-03-09 03:52:00,
2013-03-08 22:57:00,38.4,28.8,30.28,NW,325,5.0,7.0,68,0.00,,,0.00,0.00,VWS V14.01,2013-03-09 03:57:00,
2013-03-08 23:02:00,38.3,28.7,30.28,NNW,334,5.0,5.0,68,0.00,,,0.00,0.00,VWS V14.01,2013-03-09 04:02:00,
2013-03-08 23:07:00,38.2,28.9,30.28,NNW,332,5.0,9.0,69,0.00,,,0.00,0.00,VWS V14.01,2013-03-09 04:07:00,
2013-03-08 23:13:00,38.1,28.8,30.28,WNW,300,3.0,9.0,69,0.00,,,0.00,0.00,VWS V14.01,2013-03-09 04:13:00,
2013-03-08 23:18:00,38.0,28.8,30.28,NW,322,1.0,5.0,69,0.00,,,0.00,0.00,VWS V14.01,2013-03-09 04:18:00,
2013-03-08 23:23:00,37.9,28.6,30.28,NW,313,3.0,5.0,69,0.00,,,0.00,0.00,VWS V14.01,2013-03-09 04:23:00,
2013-03-08 23:28:00,37.8,28.6,30.28,NNW,327,5.0,8.0,69,0.00,,,0.00,0.00,VWS V14.01,2013-03-09 04:28:00,
2013-03-08 23:33:00,37.7,28.5,30.28,NNW,331,1.0,7.0,69,0.00,,,0.00,0.00,VWS V14.01,2013-03-09 04:33:00,
2013-03-08 23:38:00,37.6,28.4,30.28,NW,311,5.0,10.0,69,0.00,,,0.00,0.00,VWS V14.01,2013-03-09 04:38:00,
2013-03-08 23:43:00,37.5,28.6,30.28,NNW,338,2.0,7.0,70,0.00,,,0.00,0.00,VWS V14.01,2013-03-09 04:43:00,
2013-03-08 23:48:00,37.4,28.5,30.28,NNW,344,6.0,8.0,70,0.00,,,0.00,0.00,VWS V14.01,2013-03-09 04:48:00,
2013-03-08 23:53:00,37.3,28.4,30.28,NW,325,8.0,11.0,70,0.00,,,0.00,0.00,VWS V14.01,2013-03-09 04:53:00,
2013-03-08 23:58:00,37.3,28.4,30.28,NW,313,4.0,5.0,70,0.00,,,0.00,0.00,VWS V14.01,2013-03-09 04:58:00,